THY8RJ LTFM-LTFO

Flight info

Callsign THY8RJ
Flight time 1h 27m
Altitude 37000
Route EKAWE1E/36 EKAWE UT641 ERMUP UP975 ERGUN UW71 TBN UN37 ZUBRE
Aircraft B739/M-SDE2E3FGHIRWXY/LB1

Departure

Time 2026-05-07 20:28
Airport İstanbul Airport (LTFM)

Arrival

Time 2026-05-07 21:55
Airport Rize–Artvin Airport (LTFO)
Time Latitude Longitude Altitude Speed Heading
2026-05-07 19:58 41.27567 28.74258 333 ft 0 kts 179°
2026-05-07 20:17 41.27578 28.74258 333 ft 4 kts 179°
2026-05-07 20:18 41.27598 28.74257 333 ft 4 kts 159°
2026-05-07 20:18 41.27610 28.74237 331 ft 3 kts 89°
2026-05-07 20:18 41.27610 28.74208 330 ft 1 kts 89°
2026-05-07 20:18 41.27610 28.74207 330 ft 0 kts 89°
2026-05-07 20:20 41.27610 28.74208 330 ft 1 kts 89°
2026-05-07 20:21 41.27610 28.74240 330 ft 7 kts 89°
2026-05-07 20:21 41.27611 28.74330 333 ft 12 kts 89°
2026-05-07 20:21 41.27614 28.74452 333 ft 14 kts 89°
2026-05-07 20:21 41.27615 28.74577 333 ft 13 kts 89°
2026-05-07 20:22 41.27617 28.74697 333 ft 13 kts 88°
2026-05-07 20:22 41.27618 28.74815 333 ft 13 kts 89°
2026-05-07 20:22 41.27619 28.74929 333 ft 13 kts 89°
2026-05-07 20:22 41.27621 28.75061 329 ft 16 kts 89°
2026-05-07 20:23 41.27623 28.75221 331 ft 17 kts 89°
2026-05-07 20:23 41.27605 28.75346 329 ft 12 kts 141°
2026-05-07 20:23 41.27522 28.75361 330 ft 12 kts 179°
2026-05-07 20:23 41.27436 28.75363 333 ft 13 kts 179°
2026-05-07 20:24 41.27337 28.75366 329 ft 16 kts 179°
2026-05-07 20:24 41.27219 28.75369 329 ft 18 kts 178°
2026-05-07 20:24 41.27096 28.75372 329 ft 17 kts 179°
2026-05-07 20:24 41.26976 28.75374 333 ft 17 kts 179°
2026-05-07 20:25 41.26861 28.75377 333 ft 16 kts 179°
2026-05-07 20:25 41.26750 28.75379 330 ft 16 kts 179°
2026-05-07 20:25 41.26644 28.75382 333 ft 15 kts 178°
2026-05-07 20:25 41.26542 28.75385 332 ft 14 kts 179°
2026-05-07 20:26 41.26455 28.75389 332 ft 10 kts 168°
2026-05-07 20:26 41.26423 28.75448 331 ft 8 kts 92°
2026-05-07 20:26 41.26424 28.75522 330 ft 8 kts 89°
2026-05-07 20:26 41.26426 28.75603 333 ft 11 kts 89°
2026-05-07 20:27 41.26479 28.75662 349 ft 13 kts
2026-05-07 20:27 41.26665 28.75658 329 ft 57 kts 359°
2026-05-07 20:27 41.27308 28.75645 332 ft 126 kts 359°
2026-05-07 20:27 41.28376 28.75610 361 ft 176 kts 357°
2026-05-07 20:28 41.29592 28.75580 997 ft 176 kts 360°
2026-05-07 20:28 41.30798 28.76042 1625 ft 186 kts 35°
2026-05-07 20:28 41.31722 28.77303 2200 ft 199 kts 39°
2026-05-07 20:28 41.32919 28.78384 2608 ft 218 kts 25°
2026-05-07 20:29 41.34327 28.79446 2817 ft 247 kts 26°
2026-05-07 20:29 41.35893 28.80652 3202 ft 269 kts 27°
2026-05-07 20:29 41.37539 28.81896 4049 ft 273 kts 24°
2026-05-07 20:29 41.39322 28.82492 4917 ft 268 kts 355°
2026-05-07 20:30 41.41181 28.82279 5818 ft 270 kts 352°
2026-05-07 20:30 41.43069 28.82022 6644 ft 275 kts 352°
2026-05-07 20:30 41.44982 28.81765 7486 ft 277 kts 353°
2026-05-07 20:30 41.46905 28.81513 8335 ft 280 kts 353°
2026-05-07 20:31 41.48858 28.81263 9179 ft 283 kts 353°
2026-05-07 20:31 41.50828 28.81014 10019 ft 286 kts 353°
2026-05-07 20:31 41.52853 28.80761 10481 ft 304 kts 353°
2026-05-07 20:31 41.55047 28.80489 10667 ft 328 kts 354°
2026-05-07 20:32 41.57384 28.80200 11060 ft 344 kts 354°
2026-05-07 20:32 41.59789 28.79981 11693 ft 350 kts
2026-05-07 20:32 41.62161 28.80767 12422 ft 355 kts 25°
2026-05-07 20:32 41.64207 28.82632 13202 ft 359 kts 39°
2026-05-07 20:33 41.66107 28.84827 13843 ft 365 kts 40°
2026-05-07 20:33 41.68037 28.87080 14452 ft 369 kts 40°
2026-05-07 20:33 41.69991 28.89323 15161 ft 371 kts 39°
2026-05-07 20:33 41.71965 28.91566 15827 ft 374 kts 39°
2026-05-07 20:34 41.73747 28.94126 16403 ft 381 kts 58°
2026-05-07 20:34 41.74910 28.97331 17041 ft 385 kts 64°
2026-05-07 20:34 41.76011 29.00611 17660 ft 389 kts 64°
2026-05-07 20:34 41.77130 29.03931 18243 ft 393 kts 64°
2026-05-07 20:35 41.78268 29.07281 18783 ft 397 kts 64°
2026-05-07 20:35 41.79422 29.10659 19322 ft 400 kts 64°
2026-05-07 20:35 41.80587 29.14053 19880 ft 402 kts 63°
2026-05-07 20:35 41.81762 29.17473 20443 ft 405 kts 63°
2026-05-07 20:36 41.82946 29.20916 20965 ft 408 kts 63°
2026-05-07 20:36 41.84138 29.24387 21491 ft 411 kts 63°
2026-05-07 20:36 41.85341 29.27895 21994 ft 415 kts 63°
2026-05-07 20:36 41.86549 29.31423 22524 ft 417 kts 63°
2026-05-07 20:37 41.87761 29.34967 23073 ft 420 kts 63°
2026-05-07 20:37 41.88979 29.38534 23639 ft 421 kts 62°
2026-05-07 20:37 41.90200 29.42106 24083 ft 423 kts 62°
2026-05-07 20:37 41.91747 29.45452 24457 ft 421 kts 46°
2026-05-07 20:38 41.93709 29.48373 24906 ft 422 kts 44°
2026-05-07 20:38 41.95668 29.51251 25318 ft 424 kts 44°
2026-05-07 20:38 41.97651 29.54207 25723 ft 427 kts 45°
2026-05-07 20:38 41.99628 29.57206 26152 ft 429 kts 45°
2026-05-07 20:39 42.01600 29.60231 26613 ft 430 kts 45°
2026-05-07 20:39 42.03570 29.63266 27017 ft 433 kts 46°
2026-05-07 20:39 42.05202 29.66706 27314 ft 445 kts 65°
2026-05-07 20:39 42.05977 29.70783 27705 ft 455 kts 82°
2026-05-07 20:40 42.05942 29.75080 28060 ft 462 kts 90°
2026-05-07 20:40 42.05700 29.79418 28300 ft 468 kts 92°
2026-05-07 20:40 42.05343 29.83798 28589 ft 473 kts 94°
2026-05-07 20:40 42.04929 29.88198 28953 ft 475 kts 94°
2026-05-07 20:41 42.04498 29.92615 29325 ft 477 kts 94°
2026-05-07 20:41 42.04070 29.97054 29657 ft 480 kts 94°
2026-05-07 20:41 42.03649 30.01520 29936 ft 483 kts 94°
2026-05-07 20:41 42.03236 30.06017 30240 ft 486 kts 93°
2026-05-07 20:42 42.02827 30.10533 30562 ft 487 kts 93°
2026-05-07 20:42 42.02421 30.15051 30924 ft 486 kts 93°
2026-05-07 20:42 42.02017 30.19558 31326 ft 485 kts 93°
2026-05-07 20:42 42.01612 30.24060 31723 ft 483 kts 93°
2026-05-07 20:43 42.01207 30.28538 32078 ft 483 kts 93°
2026-05-07 20:43 42.00800 30.33024 32416 ft 483 kts 93°
2026-05-07 20:43 42.00391 30.37507 32747 ft 483 kts 93°
2026-05-07 20:43 41.99982 30.41974 33102 ft 482 kts 93°
2026-05-07 20:44 41.99570 30.46442 33483 ft 480 kts 93°
2026-05-07 20:44 41.99157 30.50894 33825 ft 480 kts 93°
2026-05-07 20:44 41.98744 30.55339 34133 ft 480 kts 93°
2026-05-07 20:44 41.98328 30.59795 34414 ft 479 kts 93°
2026-05-07 20:45 41.97913 30.64224 34700 ft 478 kts 94°
2026-05-07 20:45 41.97496 30.68655 34988 ft 477 kts 93°
2026-05-07 20:45 41.97083 30.73018 35252 ft 477 kts 93°
2026-05-07 20:45 41.96657 30.77505 35510 ft 476 kts 94°
2026-05-07 20:46 41.96237 30.81908 35770 ft 476 kts 94°
2026-05-07 20:46 41.95816 30.86309 36025 ft 475 kts 94°
2026-05-07 20:46 41.95393 30.90707 36280 ft 474 kts 94°
2026-05-07 20:46 41.94975 30.95038 36534 ft 473 kts 94°
2026-05-07 20:47 41.94550 30.99421 36775 ft 473 kts 94°
2026-05-07 20:47 41.94124 31.03798 37001 ft 473 kts 94°
2026-05-07 20:47 41.93695 31.08188 37146 ft 474 kts 94°
2026-05-07 20:48 41.92832 31.16979 37131 ft 473 kts 94°
2026-05-07 20:48 41.91965 31.25708 37124 ft 470 kts 94°
2026-05-07 20:49 41.91098 31.34382 37125 ft 467 kts 94°
2026-05-07 20:49 41.90229 31.43019 37133 ft 466 kts 94°
2026-05-07 20:50 41.89355 31.51648 37129 ft 467 kts 94°
2026-05-07 20:50 41.88479 31.60229 37133 ft 468 kts 94°
2026-05-07 20:51 41.87586 31.68903 37133 ft 470 kts 94°
2026-05-07 20:51 41.86683 31.77609 37136 ft 472 kts 94°
2026-05-07 20:52 41.85769 31.86356 37133 ft 474 kts 94°
2026-05-07 20:52 41.84844 31.95135 37129 ft 476 kts 94°
2026-05-07 20:53 41.83910 32.03926 37127 ft 476 kts 94°
2026-05-07 20:53 41.82970 32.12721 37132 ft 476 kts 95°
2026-05-07 20:54 41.82024 32.21498 37122 ft 475 kts 95°
2026-05-07 20:54 41.81075 32.30237 37127 ft 473 kts 95°
2026-05-07 20:55 41.80121 32.38961 37127 ft 472 kts 95°
2026-05-07 20:55 41.79166 32.47642 37137 ft 470 kts 95°
2026-05-07 20:56 41.78205 32.56309 37126 ft 470 kts 95°
2026-05-07 20:56 41.77240 32.64950 37142 ft 469 kts 95°
2026-05-07 20:57 41.76269 32.73588 37148 ft 469 kts 95°
2026-05-07 20:57 41.75292 32.82224 37171 ft 469 kts 95°
2026-05-07 20:58 41.74313 32.90808 37158 ft 470 kts 95°
2026-05-07 20:58 41.73483 32.98043 37153 ft 470 kts 95°
2026-05-07 20:59 41.72320 33.08110 37160 ft 470 kts 95°
2026-05-07 20:59 41.71478 33.15354 37190 ft 470 kts 95°
2026-05-07 21:00 41.70466 33.24001 37175 ft 471 kts 95°
2026-05-07 21:00 41.69446 33.32658 37177 ft 471 kts 95°
2026-05-07 21:01 41.68417 33.41336 37188 ft 472 kts 95°
2026-05-07 21:01 41.67381 33.50021 37199 ft 474 kts 95°
2026-05-07 21:02 41.66334 33.58729 37189 ft 475 kts 95°
2026-05-07 21:02 41.65280 33.67441 37183 ft 475 kts 96°
2026-05-07 21:03 41.64219 33.76154 37197 ft 475 kts 96°
2026-05-07 21:03 41.63153 33.84853 37200 ft 474 kts 96°
2026-05-07 21:04 41.62079 33.93555 37189 ft 474 kts 96°
2026-05-07 21:04 41.61001 34.02237 37192 ft 474 kts 96°
2026-05-07 21:05 41.59924 34.10859 37178 ft 473 kts 96°
2026-05-07 21:05 41.58836 34.19509 37174 ft 472 kts 96°
2026-05-07 21:06 41.57743 34.28146 37176 ft 471 kts 96°
2026-05-07 21:06 41.56648 34.36752 37177 ft 470 kts 96°
2026-05-07 21:07 41.55546 34.45357 37163 ft 470 kts 96°
2026-05-07 21:07 41.54439 34.53945 37160 ft 469 kts 96°
2026-05-07 21:08 41.53326 34.62524 37159 ft 469 kts 97°
2026-05-07 21:08 41.52208 34.71093 37151 ft 469 kts 97°
2026-05-07 21:09 41.51084 34.79662 37154 ft 468 kts 97°
2026-05-07 21:09 41.49959 34.88182 37154 ft 468 kts 97°
2026-05-07 21:10 41.48823 34.96736 37172 ft 469 kts 97°
2026-05-07 21:10 41.47677 35.05312 37151 ft 469 kts 97°
2026-05-07 21:11 41.46528 35.13861 37157 ft 469 kts 97°
2026-05-07 21:11 41.44790 35.26698 37158 ft 468 kts 97°
2026-05-07 21:12 41.43625 35.35241 37157 ft 469 kts 97°
2026-05-07 21:12 41.42454 35.43778 37151 ft 469 kts 97°
2026-05-07 21:13 41.41276 35.52322 37153 ft 469 kts 97°
2026-05-07 21:13 41.40091 35.60861 37154 ft 469 kts 97°
2026-05-07 21:14 41.38907 35.69346 37164 ft 469 kts 97°
2026-05-07 21:14 41.37709 35.77881 37154 ft 469 kts 98°
2026-05-07 21:15 41.36502 35.86435 37160 ft 469 kts 98°
2026-05-07 21:15 41.35294 35.94956 37182 ft 469 kts 98°
2026-05-07 21:16 41.34075 36.03496 37165 ft 469 kts 98°
2026-05-07 21:16 41.32849 36.12039 37171 ft 469 kts 98°
2026-05-07 21:17 41.31620 36.20559 37175 ft 468 kts 98°
2026-05-07 21:17 41.30387 36.29058 37180 ft 468 kts 98°
2026-05-07 21:18 41.29148 36.37556 37171 ft 468 kts 98°
2026-05-07 21:18 41.27906 36.46039 37169 ft 467 kts 98°
2026-05-07 21:19 41.26662 36.54497 37176 ft 467 kts 98°
2026-05-07 21:19 41.25860 36.62973 37207 ft 465 kts 92°
2026-05-07 21:20 41.25301 36.71532 37184 ft 465 kts 92°
2026-05-07 21:20 41.24704 36.80095 37195 ft 466 kts 93°
2026-05-07 21:21 41.24057 36.88659 37186 ft 466 kts 94°
2026-05-07 21:21 41.23390 36.97237 37185 ft 467 kts 94°
2026-05-07 21:22 41.22719 37.05815 37188 ft 467 kts 94°
2026-05-07 21:22 41.22043 37.14402 37185 ft 467 kts 94°
2026-05-07 21:23 41.21362 37.22987 37185 ft 468 kts 94°
2026-05-07 21:23 41.20729 37.31594 37185 ft 468 kts 93°
2026-05-07 21:24 41.20117 37.40196 37192 ft 468 kts 93°
2026-05-07 21:24 41.19489 37.48803 37188 ft 468 kts 94°
2026-05-07 21:25 41.18863 37.57401 37188 ft 468 kts 92°
2026-05-07 21:25 41.18416 37.65946 37182 ft 467 kts 94°
2026-05-07 21:26 41.17653 37.74507 37185 ft 467 kts 95°
2026-05-07 21:26 41.16861 37.83067 37183 ft 467 kts 95°
2026-05-07 21:27 41.16127 37.91619 37182 ft 466 kts 94°
2026-05-07 21:27 41.15458 38.00176 37184 ft 466 kts 94°
2026-05-07 21:28 41.14790 38.08716 37184 ft 465 kts 94°
2026-05-07 21:28 41.14107 38.17255 37151 ft 467 kts 94°
2026-05-07 21:29 41.13794 38.21563 36431 ft 473 kts 90°
2026-05-07 21:29 41.13838 38.25978 35297 ft 481 kts 85°
2026-05-07 21:29 41.14035 38.30378 34659 ft 472 kts 84°
2026-05-07 21:29 41.14258 38.34678 33975 ft 465 kts 83°
2026-05-07 21:30 41.14476 38.38940 33232 ft 458 kts 83°
2026-05-07 21:30 41.14672 38.43104 32645 ft 450 kts 84°
2026-05-07 21:30 41.14848 38.47222 32082 ft 444 kts 84°
2026-05-07 21:30 41.15010 38.51294 31539 ft 439 kts 84°
2026-05-07 21:31 41.15160 38.55267 31012 ft 435 kts 84°
2026-05-07 21:31 41.15304 38.59250 30495 ft 430 kts 84°
2026-05-07 21:31 41.15445 38.63205 29900 ft 426 kts 84°
2026-05-07 21:31 41.15583 38.67105 29333 ft 421 kts 84°
2026-05-07 21:32 41.15717 38.70958 28796 ft 415 kts 84°
2026-05-07 21:32 41.15849 38.74757 28273 ft 410 kts 84°
2026-05-07 21:32 41.15978 38.78522 27741 ft 405 kts 84°
2026-05-07 21:32 41.16105 38.82226 27219 ft 401 kts 84°
2026-05-07 21:33 41.16230 38.85911 26695 ft 397 kts 84°
2026-05-07 21:33 41.16352 38.89548 26195 ft 393 kts 84°
2026-05-07 21:33 41.16473 38.93156 25698 ft 390 kts 84°
2026-05-07 21:33 41.16591 38.96738 25206 ft 387 kts 85°
2026-05-07 21:34 41.16707 39.00293 24718 ft 384 kts 85°
2026-05-07 21:34 41.16822 39.03825 24249 ft 382 kts 85°
2026-05-07 21:34 41.16934 39.07336 23738 ft 381 kts 85°
2026-05-07 21:34 41.17046 39.10848 23178 ft 379 kts 85°
2026-05-07 21:35 41.17155 39.14318 22668 ft 376 kts 85°
2026-05-07 21:35 41.17261 39.17724 22197 ft 372 kts 85°
2026-05-07 21:35 41.17366 39.21142 21702 ft 369 kts 85°
2026-05-07 21:35 41.17469 39.24529 21236 ft 366 kts 85°
2026-05-07 21:36 41.17571 39.27891 20773 ft 363 kts 85°
2026-05-07 21:36 41.17671 39.31229 20296 ft 361 kts 85°
2026-05-07 21:36 41.17769 39.34545 19853 ft 358 kts 85°
2026-05-07 21:36 41.17866 39.37840 19402 ft 356 kts 85°
2026-05-07 21:37 41.17962 39.41118 18954 ft 354 kts 85°
2026-05-07 21:37 41.18055 39.44373 18505 ft 353 kts 85°
2026-05-07 21:37 41.18148 39.47630 18005 ft 351 kts 86°
2026-05-07 21:37 41.18240 39.50861 17514 ft 349 kts 86°
2026-05-07 21:38 41.18329 39.54064 17056 ft 347 kts 86°
2026-05-07 21:38 41.18417 39.57255 16598 ft 344 kts 86°
2026-05-07 21:38 41.18504 39.60427 16159 ft 342 kts 86°
2026-05-07 21:38 41.18589 39.63573 15720 ft 340 kts 86°
2026-05-07 21:39 41.18673 39.66699 15285 ft 338 kts 86°
2026-05-07 21:39 41.18756 39.69807 14857 ft 336 kts 86°
2026-05-07 21:39 41.18837 39.72866 14431 ft 335 kts 86°
2026-05-07 21:39 41.18918 39.75980 13991 ft 333 kts 86°
2026-05-07 21:40 41.18997 39.79048 13509 ft 332 kts 86°
2026-05-07 21:40 41.19075 39.82102 13056 ft 330 kts 86°
2026-05-07 21:40 41.19151 39.85097 12621 ft 328 kts 86°
2026-05-07 21:40 41.19226 39.88108 12192 ft 326 kts 86°
2026-05-07 21:41 41.19300 39.91105 11765 ft 324 kts 86°
2026-05-07 21:41 41.19373 39.94093 11279 ft 324 kts 87°
2026-05-07 21:41 41.19446 39.97094 10749 ft 326 kts 87°
2026-05-07 21:41 41.19518 40.00085 10417 ft 321 kts 87°
2026-05-07 21:42 41.19586 40.02998 10263 ft 310 kts 87°
2026-05-07 21:42 41.19651 40.05810 10119 ft 299 kts 87°
2026-05-07 21:42 41.19713 40.08507 9958 ft 286 kts 87°
2026-05-07 21:42 41.19774 40.11125 9616 ft 280 kts 87°
2026-05-07 21:43 41.19832 40.13692 9308 ft 278 kts 87°
2026-05-07 21:43 41.19891 40.16256 8985 ft 276 kts 87°
2026-05-07 21:43 41.19948 40.18796 8662 ft 275 kts 87°
2026-05-07 21:43 41.20004 40.21327 8340 ft 274 kts 87°
2026-05-07 21:44 41.20059 40.23845 8024 ft 272 kts 87°
2026-05-07 21:44 41.20113 40.26351 7708 ft 271 kts 87°
2026-05-07 21:44 41.20167 40.28848 7391 ft 270 kts 87°
2026-05-07 21:44 41.20221 40.31338 7064 ft 269 kts 87°
2026-05-07 21:45 41.20273 40.33821 6755 ft 269 kts 88°
2026-05-07 21:45 41.20324 40.36300 6423 ft 268 kts 88°
2026-05-07 21:45 41.20374 40.38776 6084 ft 268 kts 89°
2026-05-07 21:45 41.20037 40.41182 5728 ft 267 kts 118°
2026-05-07 21:46 41.18963 40.43164 5454 ft 264 kts 131°
2026-05-07 21:46 41.17759 40.44993 5132 ft 263 kts 132°
2026-05-07 21:46 41.16554 40.46807 4903 ft 259 kts 132°
2026-05-07 21:46 41.15389 40.48575 4773 ft 250 kts 132°
2026-05-07 21:47 41.14295 40.50246 4681 ft 236 kts 132°
2026-05-07 21:47 41.13252 40.51846 4549 ft 222 kts 132°
2026-05-07 21:47 41.12257 40.53373 4417 ft 218 kts 132°
2026-05-07 21:47 41.11267 40.54905 4190 ft 217 kts 128°
2026-05-07 21:48 41.10726 40.56733 3897 ft 217 kts 86°
2026-05-07 21:48 41.11127 40.58622 3714 ft 213 kts 69°
2026-05-07 21:48 41.11637 40.60481 3443 ft 215 kts 70°
2026-05-07 21:48 41.11967 40.61723 3261 ft 216 kts 71°
2026-05-07 21:49 41.12459 40.63593 2997 ft 212 kts 71°
2026-05-07 21:49 41.12933 40.65408 2752 ft 205 kts 71°
2026-05-07 21:49 41.13391 40.67159 2471 ft 198 kts 71°
2026-05-07 21:49 41.13832 40.68852 2202 ft 191 kts 71°
2026-05-07 21:50 41.14257 40.70487 1945 ft 183 kts 71°
2026-05-07 21:50 41.14664 40.72051 1706 ft 176 kts 71°
2026-05-07 21:50 41.14867 40.72833 1589 ft 171 kts 71°
2026-05-07 21:52 41.14991 40.73313 1508 ft 169 kts 71°
2026-05-07 21:53 41.15368 40.74763 1327 ft 161 kts 71°
2026-05-07 21:53 41.15714 40.76097 1169 ft 146 kts 71°
2026-05-07 21:53 41.16039 40.77359 957 ft 145 kts 71°
2026-05-07 21:53 41.16368 40.78632 789 ft 145 kts 71°
2026-05-07 21:54 41.16696 40.79898 587 ft 145 kts 71°
2026-05-07 21:54 41.17028 40.81159 379 ft 144 kts 72°
2026-05-07 21:54 41.17346 40.82405 198 ft 141 kts 72°
2026-05-07 21:54 41.17661 40.83620 28 ft 136 kts 72°
2026-05-07 21:55 41.17905 40.84576 26 ft 78 kts 71°
2026-05-07 21:55 41.18024 40.84993 25 ft 30 kts 62°
2026-05-07 21:55 41.18052 40.85105 24 ft 6 kts 123°
2026-05-07 21:55 41.18024 40.85094 26 ft 5 kts 251°
2026-05-07 21:56 41.18015 40.85035 26 ft 9 kts 257°
2026-05-07 21:56 41.17991 40.84925 25 ft 16 kts 253°
2026-05-07 21:56 41.17953 40.84762 25 ft 21 kts 253°
2026-05-07 21:56 41.17905 40.84574 26 ft 22 kts 250°
2026-05-07 21:57 41.17848 40.84427 24 ft 12 kts 210°
2026-05-07 21:57 41.17766 40.84438 26 ft 12 kts 162°
2026-05-07 21:57 41.17687 40.84471 27 ft 12 kts 162°
2026-05-07 21:57 41.17627 40.84502 27 ft 8 kts 156°
2026-05-07 21:58 41.17578 40.84528 26 ft 3 kts 162°
2026-05-07 21:58 41.17564 40.84534 26 ft 0 kts 162°